McComb, MS

12:38 AM CDT on April 24, 2018 (GMT -0500)
McComb-Pike County-Lewis

Weather History for KMCB - November, 2010

Change the Weather History Date:

Tuesday, November 16, 2010

  Actual Average Record
Temperature  
Mean Temperature 50 °F -  
Max Temperature 64 °F 69 °F 83 °F (1957)
Min Temperature 37 °F 45 °F 30 °F (1970)
Degree Days  
Heating Degree Days 14    
Moisture  
Dew Point 54 °F    
Average Humidity 87    
Maximum Humidity 100    
Minimum Humidity 58    
Precipitation  
Precipitation 0.01 in - - ()
Sea Level Pressure  
Sea Level Pressure 29.76 in    
Wind  
Wind Speed 7 mph (West)    
Max Wind Speed 16 mph    
Max Gust Speed 28 mph    
Visibility 8 miles    
Events Fog    
Averages and records for this station are not official NWS values.
T = Trace of Precipitation, MM = Missing Value Source: NWS Daily Summary

Daily Weather History Graph

Daily Weather History Graph

Search for Another Location

Airport or City:

Astronomy

Nov. 16, 2010 Rise Set
Actual Time 6:29 AM CST 5:03 PM CST
Civil Twilight 6:04 AM CST 5:28 PM CST
Nautical Twilight 5:34 AM CST 5:58 PM CST
Astronomical Twilight 5:06 AM CST 6:26 PM CST
Moon 1:55 PM CST (11/16) 1:48 AM CST (11/16)
Length of Visible Light 11h 24m
Length of Day
10h 33m
Waxing Gibbous, 77% of the Moon is Illuminated
Nov 16
Waxing Gibbous
Nov 21
Full
Nov 28
Last Quarter
Dec 5
New
Dec 13
First Quarter

Hourly Weather History & Observations

Time (CST) Temp. Windchill Dew Point Humidity Pressure Visibility Wind Dir Wind Speed Gust Speed Precip Events Conditions
12:34 AM 59.0 °F - 59.0 °F 100% 29.63 in 1.8 mi SSE 3.5 mph - N/A   Overcast
12:53 AM 59.0 °F - 59.0 °F 100% 29.62 in 0.5 mi South 4.6 mph - N/A Fog Fog
1:13 AM 60.8 °F - 60.8 °F 100% 29.62 in 0.2 mi South 4.6 mph - N/A Fog Fog
1:53 AM 60.1 °F - 60.1 °F 100% 29.61 in 0.8 mi South 5.8 mph - N/A   Mist
2:03 AM 60.8 °F - 60.8 °F 100% 29.62 in 1.8 mi SSW 6.9 mph - N/A   Overcast
2:07 AM 60.8 °F - 60.8 °F 100% 29.62 in 3.0 mi SSW 5.8 mph - N/A   Overcast
2:53 AM 62.1 °F - 62.1 °F 100% 29.62 in 4.0 mi SW 6.9 mph - N/A   Overcast
3:26 AM 62.6 °F - 62.6 °F 100% 29.63 in 7.0 mi SW 5.8 mph - 0.00 in   Overcast
3:53 AM 62.1 °F - 62.1 °F 100% 29.63 in 7.0 mi West 6.9 mph - 0.00 in   Overcast
4:08 AM 62.6 °F - 60.8 °F 94% 29.64 in 9.0 mi West 8.1 mph - N/A   Overcast
4:53 AM 61.0 °F - 60.1 °F 97% 29.65 in 9.0 mi West 5.8 mph - N/A   Mostly Cloudy
5:22 AM 60.8 °F - 60.8 °F 100% 29.67 in 9.0 mi WNW 6.9 mph - N/A   Overcast
5:33 AM 60.8 °F - 59.0 °F 94% 29.67 in 9.0 mi WNW 5.8 mph - N/A   Overcast
5:51 AM 60.8 °F - 57.2 °F 88% 29.68 in 10.0 mi West 6.9 mph - N/A   Overcast
5:53 AM 60.1 °F - 57.9 °F 93% 29.68 in 10.0 mi WNW 8.1 mph - N/A   Overcast
6:53 AM 59.0 °F - 57.0 °F 93% 29.70 in 9.0 mi West 4.6 mph - N/A   Overcast
7:26 AM 59.0 °F - 57.2 °F 94% 29.73 in 10.0 mi West 9.2 mph - N/A   Overcast
7:36 AM 59.0 °F - 55.4 °F 88% 29.74 in 10.0 mi West 10.4 mph 16.1 mph N/A   Overcast
7:53 AM 59.0 °F - 55.9 °F 90% 29.75 in 10.0 mi West 6.9 mph - N/A   Overcast
8:01 AM 59.0 °F - 55.4 °F 88% 29.75 in 10.0 mi West 5.8 mph - N/A   Overcast
8:16 AM 59.0 °F - 57.2 °F 94% 29.77 in 10.0 mi West 8.1 mph - N/A   Overcast
8:53 AM 59.0 °F - 55.9 °F 90% 29.78 in 10.0 mi West 9.2 mph - N/A   Overcast
9:21 AM 60.8 °F - 55.4 °F 82% 29.79 in 10.0 mi WNW 12.7 mph 23.0 mph N/A   Overcast
9:53 AM 61.0 °F - 55.0 °F 81% 29.78 in 10.0 mi WNW 12.7 mph 17.3 mph N/A   Mostly Cloudy
10:39 AM 60.8 °F - 53.6 °F 77% 29.78 in 10.0 mi West 11.5 mph 19.6 mph N/A   Mostly Cloudy
10:53 AM 62.1 °F - 53.1 °F 72% 29.77 in 10.0 mi West 12.7 mph 21.9 mph N/A   Mostly Cloudy
11:53 AM 64.0 °F - 50.0 °F 60% 29.76 in 10.0 mi West 13.8 mph 23.0 mph N/A   Partly Cloudy
12:53 PM 64.0 °F - 48.9 °F 58% 29.76 in 10.0 mi West 16.1 mph 24.2 mph N/A   Scattered Clouds
1:53 PM 63.0 °F - 48.0 °F 58% 29.77 in 10.0 mi WNW 13.8 mph 21.9 mph N/A   Mostly Cloudy
2:53 PM 62.1 °F - 48.9 °F 62% 29.80 in 10.0 mi WNW 15.0 mph 27.6 mph 0.01 in   Scattered Clouds
3:53 PM 60.1 °F - 46.0 °F 60% 29.84 in 10.0 mi WNW 12.7 mph 21.9 mph N/A   Mostly Cloudy
4:53 PM 55.9 °F - 44.1 °F 64% 29.87 in 10.0 mi NW 13.8 mph 23.0 mph N/A   Partly Cloudy
5:53 PM 52.0 °F - 45.0 °F 77% 29.91 in 10.0 mi NNW 15.0 mph - N/A   Clear
6:53 PM 48.9 °F - 43.0 °F 80% 29.94 in 10.0 mi NW 6.9 mph - N/A   Clear
7:53 PM 46.0 °F 44.8 °F 43.0 °F 89% 29.97 in 10.0 mi NNW 3.5 mph - N/A   Clear
8:53 PM 44.1 °F - 42.1 °F 93% 29.99 in 10.0 mi Calm Calm - N/A   Clear
9:53 PM 41.0 °F - 39.9 °F 96% 30.01 in 10.0 mi Calm Calm - N/A   Clear
10:53 PM 37.9 °F 34.4 °F 37.9 °F 100% 30.03 in 8.0 mi South 4.6 mph - N/A   Clear
11:53 PM 39.0 °F - 37.9 °F 96% 30.04 in 7.0 mi Calm Calm - N/A   Clear